User: anonymous   Login
Location: NJAA Observatory
(40.6819°N, 74.8979°W)
Time: 15:13:52
(UTC-04:00)
Language:

Cosmos 220 Rocket - Orbit

View from above orbital plane
View from above orbital plane
View from above satellite
View from above satellite

Ground track
Ground track

The orbit data is extracted from the following two-line orbital elements,

1 03230U 68040B   18170.71132142  .00000104  00000-0  14640-4 0  9998
2 03230  74.0355 227.5385 0028989  80.8541 279.5919 14.90349509690267
Epoch (UTC): 19 June 2018 17:04:18
Eccentricity: 0.0028989
inclination: 74.0355°
perigee height: 576 km
apogee height: 617 km
right ascension of ascending node: 227.5385°
argument of perigee: 80.8541°
revolutions per day: 14.90349509
mean anomaly at epoch: 279.5919°
orbit number at epoch: 69026

The dashed part of the orbit path shows where the satellite is in the earth's shadow,  

DLR